timestamp,wind_dir_avg,wind_spd_avg,wind_spd_max_dir,wind_spd_gust,battery_voltage,lat,long
2022-02-18 00:04:01+00:00,237.0,15.83,237.0,17.27,12.33,47.59359,-54.27349
2022-02-18 00:14:00+00:00,236.0,14.76,230.0,17.27,12.33,47.59359,-54.27349
2022-02-18 00:24:00+00:00,236.0,15.98,232.0,17.8,12.33,47.59359,-54.27349
2022-02-18 00:34:00+00:00,234.0,15.95,234.0,18.67,12.33,47.59359,-54.27349
2022-02-18 00:44:00+00:00,232.0,16.24,230.0,20.09,12.33,47.59359,-54.27349
2022-02-18 00:54:00+00:00,234.0,15.83,231.0,17.75,12.33,47.59359,-54.27349
2022-02-18 01:04:00+00:00,234.0,15.69,229.0,18.54,12.33,47.59359,-54.27349
2022-02-18 01:14:01+00:00,237.0,15.95,231.0,17.42,12.33,47.59359,-54.27349
2022-02-18 01:24:01+00:00,231.0,16.74,233.0,20.91,12.33,47.59359,-54.27349
2022-02-18 01:34:01+00:00,233.0,14.39,237.0,19.99,12.33,47.59359,-54.27349
2022-02-18 01:44:01+00:00,235.0,15.93,231.0,18.32,12.33,47.59359,-54.27349
2022-02-18 01:54:01+00:00,237.0,15.56,231.0,18.0,12.33,47.59359,-54.27349
2022-02-18 02:04:01+00:00,232.0,15.66,235.0,17.67,12.33,47.59359,-54.27349
2022-02-18 02:14:01+00:00,237.0,15.84,230.0,18.15,12.25,47.59359,-54.27349
2022-02-18 02:24:01+00:00,235.0,15.04,226.0,17.71,12.25,47.59359,-54.27349
2022-02-18 02:34:01+00:00,233.0,16.0,228.0,18.45,12.25,47.59359,-54.27349
2022-02-18 02:44:01+00:00,227.0,16.13,225.0,19.1,12.25,47.59359,-54.27349
2022-02-18 02:54:01+00:00,219.0,13.59,227.0,17.26,12.25,47.59359,-54.27349
2022-02-18 03:04:01+00:00,227.0,14.51,224.0,18.95,12.25,47.59359,-54.27349
2022-02-18 03:14:01+00:00,230.0,15.17,229.0,17.7,12.25,47.59359,-54.27349
2022-02-18 03:24:01+00:00,229.0,16.88,227.0,18.84,12.25,47.59359,-54.27349
2022-02-18 03:34:01+00:00,211.0,13.44,228.0,15.77,12.25,47.59359,-54.27349
2022-02-18 03:44:01+00:00,216.0,12.28,230.0,15.84,12.25,47.59359,-54.27349
2022-02-18 03:54:01+00:00,228.0,15.66,231.0,18.27,12.25,47.59359,-54.27349
2022-02-18 04:04:01+00:00,222.0,13.65,223.0,17.56,12.25,47.59359,-54.27349
2022-02-18 04:14:01+00:00,224.0,15.77,224.0,18.78,12.25,47.59359,-54.27349
2022-02-18 04:24:01+00:00,218.0,13.17,226.0,15.74,12.25,47.59359,-54.27349
2022-02-18 04:34:01+00:00,219.0,14.55,224.0,18.41,12.25,47.59359,-54.27349
2022-02-18 04:44:01+00:00,229.0,16.05,215.0,18.34,12.25,47.59359,-54.27349
2022-02-18 04:54:01+00:00,227.0,15.23,224.0,19.09,12.25,47.59359,-54.27349
2022-02-18 05:04:01+00:00,232.0,16.18,219.0,18.33,12.25,47.59359,-54.27349
2022-02-18 05:14:00+00:00,219.0,11.41,234.0,15.39,12.25,47.59359,-54.27349
2022-02-18 05:24:00+00:00,233.0,14.93,236.0,17.6,12.25,47.59359,-54.27349
2022-02-18 05:34:00+00:00,220.0,13.65,223.0,17.83,12.25,47.59359,-54.27349
2022-02-18 05:44:00+00:00,222.0,15.79,225.0,18.47,12.25,47.59359,-54.27349
2022-02-18 05:54:00+00:00,219.0,13.36,224.0,15.89,12.25,47.59359,-54.27349
2022-02-18 06:04:00+00:00,223.0,15.95,225.0,18.19,12.25,47.59359,-54.27349
2022-02-18 06:14:01+00:00,221.0,15.79,225.0,18.71,12.25,47.59359,-54.27349
2022-02-18 06:24:01+00:00,230.0,14.13,233.0,17.09,12.25,47.59359,-54.27349
2022-02-18 06:34:01+00:00,227.0,15.3,227.0,18.11,12.25,47.59359,-54.27349
2022-02-18 06:44:01+00:00,226.0,14.86,230.0,17.42,12.25,47.59359,-54.27349
2022-02-18 06:54:01+00:00,231.0,15.98,216.0,18.7,12.25,47.59359,-54.27349
2022-02-18 07:04:01+00:00,217.0,14.26,226.0,17.98,12.25,47.59359,-54.27349
2022-02-18 07:14:00+00:00,216.0,14.8,217.0,18.74,12.25,47.59359,-54.27349
2022-02-18 07:24:00+00:00,222.0,15.34,224.0,18.03,12.25,47.59359,-54.27349
2022-02-18 07:34:00+00:00,221.0,15.48,222.0,18.72,12.25,47.59359,-54.27349
2022-02-18 07:44:00+00:00,226.0,17.42,223.0,19.71,12.25,47.59359,-54.27349
2022-02-18 07:54:00+00:00,215.0,13.34,228.0,15.56,12.25,47.59359,-54.27349
2022-02-18 08:04:00+00:00,210.0,13.54,218.0,16.48,12.25,47.59359,-54.27349
2022-02-18 08:14:01+00:00,211.0,13.65,216.0,16.06,12.25,47.59359,-54.27349
2022-02-18 08:24:01+00:00,207.0,14.4,221.0,16.58,12.25,47.59359,-54.27349
2022-02-18 08:34:01+00:00,212.0,14.44,224.0,17.58,12.25,47.59359,-54.27349
2022-02-18 08:44:01+00:00,217.0,13.58,228.0,16.93,12.25,47.59359,-54.27349
2022-02-18 08:54:01+00:00,211.0,15.02,214.0,18.59,12.25,47.59359,-54.27349
2022-02-18 09:04:01+00:00,208.0,14.29,206.0,16.42,12.25,47.59359,-54.27349
2022-02-18 09:14:00+00:00,209.0,14.75,218.0,18.09,12.25,47.59359,-54.27349
2022-02-18 09:24:00+00:00,209.0,13.31,226.0,17.32,12.25,47.59359,-54.27349
2022-02-18 09:34:00+00:00,216.0,13.88,223.0,18.83,12.25,47.59359,-54.27349
2022-02-18 09:44:00+00:00,227.0,14.85,229.0,17.75,12.25,47.59359,-54.27349
2022-02-18 09:54:00+00:00,215.0,14.35,225.0,18.79,12.25,47.59359,-54.27349
2022-02-18 10:04:00+00:00,211.0,14.01,223.0,18.16,12.25,47.59359,-54.27349
2022-02-18 10:14:01+00:00,214.0,13.28,225.0,17.23,12.25,47.59359,-54.27349
2022-02-18 10:24:01+00:00,220.0,14.44,225.0,17.23,12.25,47.59359,-54.27349
2022-02-18 10:34:01+00:00,218.0,15.7,222.0,17.47,12.25,47.59359,-54.27349
2022-02-18 10:44:01+00:00,219.0,13.37,218.0,16.96,12.25,47.59359,-54.27349
2022-02-18 10:54:01+00:00,218.0,13.94,226.0,18.55,12.25,47.59359,-54.27349
2022-02-18 11:04:01+00:00,208.0,14.32,219.0,17.87,12.25,47.59359,-54.27349
2022-02-18 11:14:00+00:00,218.0,16.03,223.0,20.61,12.25,47.59359,-54.27349
2022-02-18 11:24:00+00:00,211.0,16.74,217.0,19.27,12.25,47.59359,-54.27349
2022-02-18 11:34:00+00:00,212.0,15.11,221.0,18.18,12.25,47.59359,-54.27349
2022-02-18 11:44:00+00:00,215.0,17.15,212.0,20.59,12.25,47.59359,-54.27349
2022-02-18 11:54:00+00:00,216.0,15.54,218.0,18.42,12.25,47.59359,-54.27349
2022-02-18 12:04:00+00:00,211.0,14.13,223.0,18.18,12.25,47.59359,-54.27349
2022-02-18 12:14:00+00:00,211.0,14.31,222.0,18.54,12.25,47.59359,-54.27349
2022-02-18 12:24:00+00:00,211.0,15.09,212.0,18.58,12.25,47.59359,-54.27349
2022-02-18 12:34:00+00:00,208.0,13.91,216.0,17.9,12.25,47.59359,-54.27349
2022-02-18 12:44:00+00:00,211.0,14.73,213.0,18.65,12.25,47.59359,-54.27349
2022-02-18 12:54:00+00:00,212.0,15.14,213.0,18.63,12.25,47.59359,-54.27349
2022-02-18 13:04:00+00:00,215.0,16.24,217.0,20.13,12.25,47.59359,-54.27349
2022-02-18 13:14:01+00:00,218.0,14.79,221.0,18.11,12.33,47.59359,-54.27349
2022-02-18 13:24:01+00:00,219.0,13.4,221.0,17.4,12.33,47.59359,-54.27349
2022-02-18 13:34:01+00:00,222.0,17.16,220.0,19.18,12.33,47.59359,-54.27349
2022-02-18 13:44:01+00:00,220.0,14.18,221.0,18.14,12.33,47.59359,-54.27349
2022-02-18 13:54:01+00:00,218.0,16.58,214.0,19.93,12.33,47.59359,-54.27349
2022-02-18 14:04:01+00:00,220.0,16.17,213.0,20.5,12.33,47.59359,-54.27349
2022-02-18 14:14:00+00:00,218.0,17.37,221.0,19.09,12.41,47.59359,-54.27349
2022-02-18 14:24:00+00:00,219.0,15.88,220.0,18.67,12.41,47.59359,-54.27349
2022-02-18 14:34:00+00:00,219.0,15.55,223.0,18.72,12.41,47.59359,-54.27349
2022-02-18 14:44:00+00:00,225.0,16.08,224.0,18.28,12.41,47.59359,-54.27349
2022-02-18 14:54:00+00:00,224.0,15.42,225.0,18.75,12.41,47.59359,-54.27349
2022-02-18 15:04:00+00:00,220.0,15.57,221.0,19.15,12.41,47.59359,-54.27349
2022-02-18 15:14:01+00:00,221.0,17.23,223.0,19.5,12.33,47.59359,-54.27349
2022-02-18 15:24:01+00:00,221.0,15.35,224.0,19.41,12.33,47.59359,-54.27349
2022-02-18 15:34:01+00:00,223.0,16.24,223.0,19.27,12.33,47.59359,-54.27349
2022-02-18 15:44:01+00:00,223.0,14.92,226.0,17.79,12.33,47.59359,-54.27349
2022-02-18 15:54:01+00:00,227.0,14.69,229.0,16.9,12.33,47.59359,-54.27349
2022-02-18 16:04:01+00:00,229.0,15.95,228.0,17.55,12.33,47.59359,-54.27349
2022-02-18 16:14:00+00:00,222.0,16.43,217.0,20.27,12.33,47.59359,-54.27349
2022-02-18 16:24:00+00:00,220.0,18.87,217.0,21.34,12.33,47.59359,-54.27349
2022-02-18 16:34:00+00:00,215.0,20.13,210.0,24.59,12.33,47.59359,-54.27349
2022-02-18 16:44:00+00:00,214.0,19.69,209.0,23.55,12.33,47.59359,-54.27349
2022-02-18 16:54:00+00:00,217.0,20.43,209.0,23.36,12.33,47.59359,-54.27349
2022-02-18 17:04:00+00:00,215.0,20.27,211.0,24.14,12.33,47.59359,-54.27349
2022-02-18 17:14:01+00:00,214.0,20.81,208.0,23.63,12.33,47.59359,-54.27349
2022-02-18 17:24:01+00:00,210.0,23.02,215.0,26.92,12.33,47.59359,-54.27349
2022-02-18 17:34:01+00:00,212.0,21.51,211.0,25.09,12.33,47.59359,-54.27349
2022-02-18 17:44:01+00:00,213.0,21.73,218.0,27.86,12.33,47.59359,-54.27349
2022-02-18 17:54:01+00:00,214.0,20.03,212.0,24.73,12.33,47.59359,-54.27349
2022-02-18 18:04:01+00:00,217.0,19.92,216.0,23.8,12.33,47.59359,-54.27349
2022-02-18 18:14:01+00:00,217.0,19.73,216.0,23.6,12.33,47.59359,-54.27349
2022-02-18 18:24:01+00:00,217.0,19.49,216.0,22.49,12.33,47.59359,-54.27349
2022-02-18 18:34:01+00:00,216.0,19.86,213.0,23.31,12.33,47.59359,-54.27349
2022-02-18 18:44:01+00:00,216.0,20.51,215.0,22.94,12.33,47.59359,-54.27349
2022-02-18 18:54:01+00:00,215.0,19.84,211.0,24.97,12.33,47.59359,-54.27349
2022-02-18 19:04:01+00:00,216.0,20.38,217.0,23.17,12.33,47.59359,-54.27349
2022-02-18 19:14:01+00:00,213.0,21.48,213.0,24.58,12.25,47.59359,-54.27349
2022-02-18 19:24:01+00:00,212.0,22.5,225.0,28.22,12.25,47.59359,-54.27349
2022-02-18 19:34:01+00:00,215.0,20.53,212.0,25.11,12.25,47.59359,-54.27349
2022-02-18 19:44:01+00:00,219.0,19.47,216.0,22.77,12.25,47.59359,-54.27349
2022-02-18 19:54:01+00:00,215.0,20.82,213.0,23.76,12.25,47.59359,-54.27349
2022-02-18 20:04:01+00:00,214.0,20.61,210.0,25.49,12.25,47.59359,-54.27349
2022-02-18 20:14:00+00:00,213.0,21.98,219.0,27.21,12.25,47.59359,-54.27349
2022-02-18 20:24:00+00:00,215.0,19.97,217.0,23.36,12.25,47.59359,-54.27349
2022-02-18 20:34:00+00:00,217.0,20.39,227.0,27.68,12.25,47.59359,-54.27349
2022-02-18 20:44:00+00:00,216.0,20.06,214.0,23.49,12.25,47.59359,-54.27349
2022-02-18 20:54:00+00:00,212.0,21.23,208.0,26.07,12.25,47.59359,-54.27349
2022-02-18 21:04:00+00:00,212.0,21.33,212.0,24.87,12.25,47.59359,-54.27349
2022-02-18 21:14:01+00:00,214.0,20.77,229.0,26.76,12.25,47.59359,-54.27349
2022-02-18 21:24:01+00:00,214.0,21.54,225.0,26.51,12.25,47.59359,-54.27349
2022-02-18 21:34:01+00:00,212.0,21.56,213.0,24.68,12.25,47.59359,-54.27349
2022-02-18 21:44:01+00:00,214.0,20.84,211.0,24.07,12.25,47.59359,-54.27349
2022-02-18 21:54:01+00:00,213.0,22.0,218.0,27.18,12.25,47.59359,-54.27349
2022-02-18 22:04:01+00:00,213.0,20.97,214.0,24.5,12.25,47.59359,-54.27349
2022-02-18 22:14:00+00:00,212.0,21.5,213.0,24.98,12.25,47.59359,-54.27349
2022-02-18 22:24:00+00:00,212.0,21.76,208.0,25.45,12.25,47.59359,-54.27349
2022-02-18 22:34:00+00:00,214.0,21.73,219.0,27.47,12.25,47.59359,-54.27349
2022-02-18 22:44:00+00:00,217.0,19.36,221.0,24.18,12.25,47.59359,-54.27349
2022-02-18 22:54:00+00:00,224.0,17.37,232.0,23.86,12.25,47.59359,-54.27349
2022-02-18 23:04:00+00:00,222.0,17.47,229.0,22.16,12.25,47.59359,-54.27349
2022-02-18 23:14:01+00:00,228.0,21.01,228.0,28.55,12.25,47.59359,-54.27349
2022-02-18 23:24:01+00:00,226.0,19.46,236.0,26.52,12.25,47.59359,-54.27349
2022-02-18 23:34:01+00:00,224.0,18.83,223.0,26.21,12.25,47.59359,-54.27349
2022-02-18 23:44:01+00:00,225.0,19.7,234.0,25.79,12.25,47.59359,-54.27349
2022-02-18 23:54:01+00:00,224.0,21.95,226.0,29.74,12.25,47.59359,-54.27349
